Location: Adrasan
(36.3319°N, 30.4314°E)
Time: 02:08:41
(UTC+00:00)

COSMO-SKYMED 1 - Pass Details

Date: 14 October 2025
Orbit: 580 x 582 km, 97.9° (Epoch: 13 November)

Event Time Altitude Azimuth Distance (km) Brightness Sun altitude
Rises 15:46:35 0° 20° (NNE) 2,808 5.7 -5.4°
Reaches altitude 10° 15:48:51 10° 27° (NNE) 1,903 4.8 -5.9°
Maximum altitude 15:52:46 42° 99° (E) 839 2.8 -6.7°
Drops below altitude 10° 15:56:39 10° 171° (S) 1,887 5.0 -7.5°
Sets 15:58:49 0° 178° (S) 2,759 5.9 -7.9°
